Regional Weather Roundup
Issued by NWS

Home | Current Version | Previous Version | Graphics & Text | Print | Product List | Glossary On
Versions: 1 2 3 4 5 6 7 8 9 10 11 12 13 14 15 16 17 18 19 20 21 22 23 24 25 26 27 28 29 30 31 32 33 34 35 36 37 38 39 40 41 42 43 44 45 46 47 48 49 50
000
ASUS43 KMKX 231900
RWRWI

WISCONSIN REGIONAL WEATHER ROUNDUP
NATIONAL WEATHER SERVICE MILWAUKEE/SULLIVAN WI
200 PM CDT THU MAR 23 2017

NOTE: "FAIR" INDICATES FEW OR NO CLOUDS BELOW 12,000 FEET WITH NO
SIGNIFICANT WEATHER AND/OR OBSTRUCTIONS TO VISIBILITY.

WIZ001-002-006>008-014>016-023>028-232000-
NORTHWEST WISCONSIN

CITY           SKY/WX    TMP DP  RH WIND       PRES   REMARKS
SUPERIOR ARPT  CLOUDY    39  25  58 S13       30.03F WCI  31
ASHLAND        NOT AVBL
HAYWARD        CLOUDY    38  21  50 S12G17    30.04F WCI  30
SIREN          CLOUDY    38  22  54 S13       30.04F WCI  30
CUMBERLAND     CLOUDY    36  23  60 S14       30.05F WCI  27
RICE LAKE      CLOUDY    37  24  60 SE6       30.08F WCI  32
CHETEK         CLOUDY    36  24  59 SE9G17    30.07F WCI  29
LADYSMITH      CLOUDY    36  23  60 S14G20    30.10F WCI  27
EAU CLAIRE     NOT AVBL
MENOMONIE      CLOUDY    40  21  48 SE15      30.07F WCI  31
NEW RICHMOND   CLOUDY    38  23  53 S13       30.04F WCI  30
OSCEOLA        CLOUDY    39  27  60 SE18      30.05F WCI  30
$$

WIZ003>005-009-010-017-018-232000-
NORTH CENTRAL WISCONSIN

CITY           SKY/WX    TMP DP  RH WIND       PRES   REMARKS
MANITOWISH WTR CLOUDY    34  20  57 S15       30.06F WCI  24
ARBOR VITAE    CLOUDY    37  23  58 S13G18    30.07F WCI  28
WOODRUFF       CLOUDY    37  23  58 S13G18    30.07F WCI  28
RHINELANDER    CLOUDY    37  20  50 S10G20    30.10F WCI  30
EAGLE RIVER    CLOUDY    35  18  49 S12G18    30.09F WCI  27
LAND O LAKES   CLOUDY    34  17  50 S10G18    30.09F WCI  26
PHILLIPS       CLOUDY    35  22  60 S12G18    30.08S WCI  27
TOMAHAWK       CLOUDY    37  22  55 S6        30.11F WCI  32
MEDFORD        CLOUDY    36  23  58 SE14      30.10S WCI  27
MERRILL        CLOUDY    38  21  51 S8G18     30.13F WCI  32
$$

WIZ029-030-035-036-043>047-232000-
CENTRAL WISCONSIN

CITY           SKY/WX    TMP DP  RH WIND       PRES   REMARKS
WAUSAU         NOT AVBL
MOSINEE        CLOUDY    39  21  48 SE15G21   30.14F WCI  31
MARSHFIELD     NOT AVBL
STEVENS POINT  CLOUDY    39  19  45 SE10G20   30.15F WCI  32
WAUPACA        CLOUDY    44  22  41 SE9G17    30.19F
WAUTOMA        NOT AVBL
WISC RAPIDS    NOT AVBL
CAMP DOUGLAS   NOT AVBL
$$

WIZ011>013-019>022-031-037>040-048>050-232000-
NORTHEAST WISCONSIN

CITY           SKY/WX    TMP DP  RH WIND       PRES   REMARKS
ANTIGO         CLOUDY    35  23  61 S15G23    30.15F WCI  25
SHAWANO        CLOUDY    41  24  50 S10G18    30.21F
OCONTO         CLOUDY    35  26  69 S10G17    30.24F WCI  27
STURGEON BAY   NOT AVBL
GREEN BAY      CLOUDY    38  27  64 S17       30.21F WCI  28
MANITOWOC      NOT AVBL
APPLETON       CLOUDY    39  19  45 SE16G23   30.18F WCI  30
CLINTONVILLE   CLOUDY    37  23  56 SE13      30.20F WCI  29
OSHKOSH        CLOUDY    42  24  49 S10       30.19F
$$

WIZ032>034-041-042-053>061-232000-
SOUTHWEST WISCONSIN

CITY           SKY/WX    TMP DP  RH WIND       PRES   REMARKS
LA CROSSE      CLOUDY    43  23  45 S15       30.10F
SPARTA         CLOUDY    41  22  46 SE12      30.13F
VIROQUA        CLOUDY    40  23  49 S15G22    30.10F WCI  32
BOSCOBEL       CLOUDY    44  22  41 S10G20    30.14F
PRAIRIE DU CHI CLOUDY    42  24  47 SE8G16    30.13F
PLATTEVILLE    CLOUDY    44  26  50 SE18      30.15F
$$

WIZ056-057-062-063-064-067-068-232000-
SOUTH CENTRAL WISCONSIN

CITY           SKY/WX    TMP DP  RH WIND       PRES   REMARKS
REEDSBURG      CLOUDY    41  22  46 SE10      30.16F
BARABOO/DELLS  CLOUDY    42  21  42 S12G18    30.16F
LONE ROCK      NOT AVBL
MINERAL POINT  CLOUDY    43  23  45 SE16      30.15F
MADISON        CLOUDY    44  19  36 S12       30.17F
MIDDLETON      CLOUDY    45  20  37 S14G21    30.18F
WATERTOWN      CLOUDY    46  22  38 S14G24    30.20F
MONROE         CLOUDY    43  23  45 S20       30.17F
JANESVILLE     CLOUDY   N/A N/A N/A SE15G21   30.19F
$$

WIZ051-052-058>065-066-070>072-232000-
SOUTHEAST WISCONSIN

CITY           SKY/WX    TMP DP  RH WIND       PRES   REMARKS
MILWAUKEE      PTSUNNY   43  23  45 SE15      30.25F
WAUKESHA       NOT AVBL
MILWAUKEE/TIMM MOSUNNY   43  19  39 SE15G22   30.24F
RACINE         CLOUDY    39  23  52 S21G30    30.27F WCI  29
KENOSHA        MOSUNNY   42  25  50 SE16      30.24F
FOND DU LAC    CLOUDY    42  23  46 S14       30.19F
SHEBOYGAN      CLOUDY    36  25  64 SE20G26   30.23F WCI  25
WEST BEND      PTSUNNY   41  27  56 SE14      30.21F
JUNEAU         CLOUDY    42  23  46 SE10      30.21F
$$

LSZ147-162-232000-
LAKE SUPERIOR

STATION/POSITION TIME  TEMP    WIND        PRES    WAVE
                       AIR SEA DIR/SP/G            HT/PER
                 (UTC) (F)     (DEG/KT/KT) (MB)    (FT/S)
DEVILS ISLAND    1800   35     180/  5/  8 1018.9F
PORT WING        1830   38     190/  6/ 13 1017.6F
SAXON HARBOR     1750   39     200/  5/ 10 1017.6F
$$

LMZ867-665-643>646-232000-
LAKE MICHIGAN

STATION/POSITION TIME  TEMP    WIND        PRES    WAVE
                       AIR SEA DIR/SP/G            HT/PER
                 (UTC) (F)     (DEG/KT/KT) (MB)    (FT/S)
CHAMBERS ISLAND  1840   34     140/  8/ 15 1023.7F
NORTHPORT PIER   1830   33     160/ 12/ 21 1024.7F
SISTER BAY       1750   35     170/ 20/ 26   N/A
KEWAUNEE LAKESHO 1830   34     180/ 22/ 25 1024.8F
SHEBOYGAN LAKESH 1800   34     160/ 27/ 30 1025.6F
PORT WASHINGTON  1830   37     160/ 18/ 23 1025.7F
MILWAUKEE LAKESH 1820   35     150/ 23/ 25   N/A
KENOSHA   LAKESH 1800   35     150/ 23/ 26 1025.4
$$

TC  - TEMPERATURE IN CELSIUS
VSB - VISIBILITY IN STATUTE MILES
WCI - WIND CHILL INDEX
HX  - HEAT INDEX





USA.gov is the U.S. government's official web portal to all federal, state and local government web resources and services.